Location: Bidwell Hollow
(37.7387°N, 90.1707°W)
Time: 02:29:19
(UTC+00:00)

Vanguard 3 - Pass Details

Date: 10 May 2026
Orbit: 507 x 3204 km, 33.3° (Epoch: 6 June)

Event Time Altitude Azimuth Distance (km) Brightness Sun altitude
Rises 18:48:03 0° 213° (SSW) 6,610 12.1 67.1°
Reaches altitude 10° 18:52:39 10° 206° (SSW) 5,828 12.0 66.6°
Maximum altitude 19:09:22 40° 146° (SE) 4,128 11.4 64.5°
Drops below altitude 10° 19:24:59 10° 85° (E) 5,504 11.3 62.3°
Sets 19:29:05 0° 78° (ENE) 6,229 11.4 61.7°
